DateTimeUTC,F1_A11,F1_S11,BsB_S11,BsG_S11,BsR_S11,BbsB_S11,BbsG_S11,BbsR_S11,BaB_A11,BaG_A11,BaR_A11,Tu_S11,T_S11,Uu_S11,U_S11,P_S11,T1_A11
2021-04-29T11:00:00Z,00000200,21000000,,,,,,,0000.01,-000.01,-000.03,17.4,24.4,00.9,00.6,0681.3,31.0
2021-04-29T11:01:00Z,00000200,21000000,,,,,,,-000.25,-000.22,0000.07,17.4,24.4,00.8,00.5,0681.3,31.0
2021-04-29T11:02:00Z,00000200,21000000,,,,,,,0000.42,0000.33,0000.11,17.4,24.4,00.6,00.4,0681.3,31.0
2021-04-29T11:03:00Z,00000200,61000000,,,,,,,-000.22,-000.11,-000.06,17.4,24.4,00.6,00.4,0681.3,31.0
2021-04-29T11:04:00Z,00000200,41000000,0000.87,0000.26,0000.33,0000.53,0000.30,-000.44,0000.39,0000.38,0000.30,17.5,24.3,00.9,00.6,0682.2,31.0
2021-04-29T11:05:00Z,00000200,01000000,0000.58,0000.48,0000.44,0000.14,0000.51,0000.05,0000.54,0000.10,0000.62,17.6,24.3,00.8,00.5,0682.3,31.1
2021-04-29T11:06:00Z,00000200,01000000,0000.68,0000.59,0000.30,-000.13,0000.20,0000.07,0000.05,0000.39,-000.25,17.6,24.2,00.9,00.6,0682.3,31.0
2021-04-29T11:07:00Z,00000200,01000000,0000.77,0000.70,0000.16,-000.23,0000.16,0000.22,0000.59,0000.45,0000.61,17.6,24.2,00.9,00.6,0682.3,31.0
2021-04-29T11:08:00Z,00000200,01000000,0000.86,0000.65,0000.31,-000.14,0000.32,0000.14,0000.45,0000.16,0000.08,17.6,24.2,01.0,00.7,0682.3,31.0
2021-04-29T11:09:00Z,00000200,01000000,0000.57,0000.49,0000.45,-000.37,0000.33,0000.01,0000.09,0000.36,0000.19,17.6,24.2,01.0,00.7,0682.3,31.0
2021-04-29T11:10:00Z,00000200,01000000,0000.70,0000.68,0000.41,-000.02,0000.45,-000.07,0000.23,0000.25,-000.06,17.6,24.2,00.9,00.6,0682.3,31.0
2021-04-29T11:11:00Z,00000200,01000000,0001.16,0000.44,0000.23,0000.22,0000.23,-000.07,0000.43,0000.17,0000.35,17.6,24.2,00.8,00.5,0682.3,31.0
2021-04-29T11:12:00Z,00000200,01000000,0000.68,0000.70,0000.48,0000.08,0000.18,0000.16,0000.34,0000.60,0000.11,17.7,24.2,00.9,00.6,0682.3,31.0
2021-04-29T11:13:00Z,00000200,01000000,0000.84,0000.33,0000.29,-000.11,0000.46,0000.11,0000.42,0000.16,0000.31,17.6,24.2,00.7,00.5,0682.3,31.0
2021-04-29T11:14:00Z,00000200,01000000,0000.86,0000.51,0000.35,0000.12,0000.43,0000.06,0000.70,0000.28,0000.33,17.7,24.2,00.8,00.5,0682.3,31.0
2021-04-29T11:15:00Z,00000200,01000000,0000.03,0000.14,0000.34,0000.22,0000.02,0000.18,0000.13,0000.26,0000.27,17.7,24.2,00.9,00.6,0682.3,31.0
2021-04-29T11:16:00Z,00000200,01000000,0000.98,0000.60,0000.39,-000.30,0000.23,0000.05,-000.07,0000.23,0000.04,17.7,24.2,00.8,00.5,0682.3,31.0
2021-04-29T11:17:00Z,00000200,01000000,0000.63,0000.74,0000.35,0000.08,0000.36,-000.04,0000.65,0000.19,0000.31,17.7,24.2,00.7,00.5,0682.3,31.0
2021-04-29T11:18:00Z,00000200,01000000,0000.71,0000.81,0000.22,0000.54,0000.36,-000.24,0000.51,0000.90,0000.63,17.7,24.2,00.8,00.5,0682.3,31.0
2021-04-29T11:19:00Z,00000200,01000000,0001.10,0000.76,0000.26,-000.04,0000.34,-000.05,0000.14,0000.06,-000.36,17.7,24.2,00.7,00.5,0682.3,31.0
2021-04-29T11:20:00Z,00000200,01000000,0001.07,0000.46,0000.43,-000.24,0000.18,0000.38,0000.02,0000.21,0000.29,17.7,24.2,00.6,00.4,0682.3,31.0
2021-04-29T11:21:00Z,00000200,01000000,0000.59,0000.71,0000.39,-000.03,0000.25,0000.27,0000.56,0000.05,0000.35,17.7,24.2,00.7,00.5,0682.3,31.0
2021-04-29T11:22:00Z,00000200,01000000,0000.32,0000.73,0000.10,0000.02,0000.16,0000.06,0000.19,0000.49,0000.55,17.8,24.3,00.5,00.3,0682.3,31.0
2021-04-29T11:23:00Z,00000200,01000000,0000.76,0000.57,0000.58,-000.21,0000.17,0000.24,0000.15,0000.11,-000.08,17.8,24.3,00.6,00.4,0682.3,31.0
2021-04-29T11:24:00Z,00000200,01000000,0000.61,0000.44,0000.34,-000.53,0000.47,-000.12,0000.40,0000.12,0000.23,17.8,24.3,00.5,00.3,0682.3,31.1
2021-04-29T11:25:00Z,00000200,01000000,0000.68,0000.41,0000.37,-000.40,0000.13,-000.01,0000.35,0000.15,0000.22,17.8,24.3,00.5,00.3,0682.3,31.0
2021-04-29T11:26:00Z,00000200,01000000,0001.00,0000.20,0000.39,0000.62,0000.32,0000.06,-000.10,0000.48,0000.24,17.8,24.3,00.3,00.2,0682.3,31.0
2021-04-29T11:27:00Z,00000200,01000000,0000.89,0000.34,0000.21,-000.03,0000.16,-000.23,0000.56,-000.02,-000.07,17.8,24.3,00.4,00.3,0682.3,31.0
2021-04-29T11:28:00Z,00000200,01000000,-000.05,0000.68,0000.17,-000.14,0000.38,0000.02,0000.09,0000.19,0000.36,17.8,24.3,00.3,00.2,0682.3,31.0
2021-04-29T11:29:00Z,00000200,01000000,0000.72,0000.38,0000.55,0000.36,0000.48,0000.07,0000.53,0000.44,0000.30,17.8,24.3,00.3,00.2,0682.3,31.0
2021-04-29T11:30:00Z,00000200,01000000,0000.91,0000.68,0000.38,-000.24,0000.25,0000.16,0000.11,0000.10,0000.14,17.8,24.3,00.3,00.2,0682.3,31.0
2021-04-29T11:31:00Z,00000200,01000000,0000.87,0000.60,0000.38,0000.22,0000.13,-000.05,0000.60,0000.26,0000.11,17.8,24.3,00.3,00.2,0682.3,31.0
2021-04-29T11:32:00Z,00000200,01000000,0001.38,0000.51,0000.29,0000.27,0000.21,0000.18,0000.26,0000.76,0000.06,17.8,24.3,00.2,00.1,0682.3,31.0
2021-04-29T11:33:00Z,00000200,01000000,0000.68,0000.40,0000.14,-000.04,0000.38,0000.10,0000.08,0000.09,0000.27,17.8,24.3,00.2,00.1,0682.3,31.0
2021-04-29T11:34:00Z,00000200,01000000,0000.34,0000.48,0000.18,0000.06,0000.14,0000.10,0000.25,-000.14,0000.21,17.9,24.3,00.2,00.1,0682.3,31.1
2021-04-29T11:35:00Z,00000200,01000000,0000.87,0000.44,0000.28,0000.08,0000.32,0000.20,0000.28,0000.52,0000.29,17.9,24.3,00.1,00.1,0682.3,31.0
2021-04-29T11:36:00Z,00000200,01000000,0001.01,0000.37,0000.31,0000.19,0000.25,0000.19,0000.20,0000.03,0000.26,17.9,24.3,00.1,00.1,0682.3,31.0
2021-04-29T11:37:00Z,00000200,01000000,0001.19,0000.68,0000.04,-000.26,0000.17,-000.07,0000.34,0000.17,0000.12,17.9,24.3,00.2,00.1,0682.3,31.0
2021-04-29T11:38:00Z,00000200,01000000,0000.47,0000.57,0000.54,0000.20,0000.24,0000.14,0000.49,0000.82,0000.47,17.9,24.3,00.1,00.1,0682.4,31.0
2021-04-29T11:39:00Z,00000200,01000000,0000.74,0000.71,0000.14,-000.02,0000.16,0000.08,0000.80,0000.57,0000.39,17.9,24.4,00.2,00.1,0682.4,31.0
2021-04-29T11:40:00Z,00000200,01000000,0000.87,0000.65,0000.42,0000.11,0000.06,0000.11,0000.18,0000.27,0000.16,17.9,24.4,00.2,00.1,0682.3,31.0
2021-04-29T11:41:00Z,00000200,01000000,0000.96,0000.68,0000.22,-000.02,0000.18,0000.29,0000.43,0000.17,-000.01,17.9,24.4,00.2,00.1,0682.3,31.1
2021-04-29T11:42:00Z,00000200,01000000,0000.37,0000.50,0000.17,0000.24,0000.25,-000.02,0000.54,0000.34,0000.28,17.9,24.4,00.2,00.1,0682.3,31.1
2021-04-29T11:43:00Z,00000200,01000000,0001.57,0000.30,0000.26,0000.52,0000.35,0000.23,0000.01,-000.19,0000.13,17.9,24.4,00.1,00.1,0682.3,31.0
2021-04-29T11:44:00Z,00000200,01000000,0000.72,0000.85,0000.36,-000.23,0000.27,0000.26,0000.19,0000.32,0000.18,17.9,24.4,00.1,00.1,0682.3,31.0
2021-04-29T11:45:00Z,00000200,01000000,0000.94,0000.57,0000.54,0000.15,-000.02,0000.09,0000.67,0000.56,0000.32,17.9,24.3,00.1,00.1,0682.3,31.0
2021-04-29T11:46:00Z,00000200,01000000,0001.66,0000.80,0000.34,0000.05,-000.20,-000.13,0000.14,0000.37,0000.45,17.9,24.3,00.1,00.1,0682.3,31.0
2021-04-29T11:47:00Z,00000200,01000000,0001.01,0000.66,0000.34,0000.35,0000.11,-000.05,0000.59,0000.64,0000.33,17.9,24.4,00.1,00.0,0682.3,31.0
2021-04-29T11:48:00Z,00000200,01000000,0000.68,0000.41,0000.30,0000.28,0000.21,-000.15,0000.40,0000.53,-000.06,17.9,24.4,00.1,00.1,0682.3,31.0
2021-04-29T11:49:00Z,00000200,01000000,0000.63,0000.87,0000.33,-000.03,0000.16,0000.36,0000.65,0000.27,0000.64,17.9,24.4,00.2,00.1,0682.3,31.0
2021-04-29T11:50:00Z,00000200,01000000,0000.47,0000.73,0000.27,-000.28,0000.11,0000.09,0000.74,0000.37,0000.45,17.9,24.4,00.1,00.1,0682.3,31.0
2021-04-29T11:51:00Z,00000200,01000000,0000.37,0000.82,0000.32,-000.26,0000.18,-000.24,0000.59,0000.64,0000.25,17.9,24.4,00.1,00.1,0682.3,31.0
2021-04-29T11:52:00Z,00000200,01000000,0001.20,0000.69,0000.23,0000.24,0000.16,0000.01,0000.49,0000.53,0000.25,17.9,24.4,00.1,00.1,0682.3,31.0
2021-04-29T11:53:00Z,00000200,01000000,0001.18,0000.60,0000.46,-000.32,0000.10,-000.08,0000.63,0000.38,0000.76,17.9,24.4,00.1,00.1,0682.3,31.0
2021-04-29T11:54:00Z,00000200,01000000,0001.21,0000.72,0000.60,-000.41,0000.40,0000.07,0000.35,0000.80,0000.09,18.0,24.4,00.1,00.1,0682.3,31.0
2021-04-29T11:55:00Z,00000200,01000000,0000.14,0000.60,0000.62,0000.04,0000.14,0000.05,0000.72,0000.34,0000.20,18.0,24.4,00.2,00.1,0682.3,31.0
2021-04-29T11:56:00Z,00000200,01000000,0000.86,0000.78,0000.34,-000.06,0000.37,-000.06,0000.47,0000.19,0000.72,18.0,24.4,00.2,00.2,0682.3,31.0
2021-04-29T11:57:00Z,00000200,41000000,,,,,,,0000.68,0000.96,0000.04,18.0,24.4,00.6,00.4,0682.4,31.1
2021-04-29T11:58:00Z,00000200,61000000,,,,,,,-000.27,-000.37,0000.22,17.9,24.6,00.0,00.0,0681.2,31.1
2021-04-29T11:59:00Z,00000200,21000000,,,,,,,-000.49,-000.44,-000.32,17.9,24.7,,00.0,0681.2,31.1
